Weather History for Tampa, FL

Change the Weather History Date:

Thursday, March 27, 2014

  Actual Average Record
Temperature  
Mean Temperature 60 °F 69 °F  
Max Temperature 67 °F 78 °F 89 °F (1929)
Min Temperature 52 °F 60 °F 39 °F (1894)
Degree Days  
Heating Degree Days 5 1  
Month to date heating degree days 45 53  
Since 1 July heating degree days 441 524  
Cooling Degree Days 0 5  
Month to date cooling degree days 67 105  
Year to date cooling degree days 171 218  
Growing Degree Days 9 (Base 50)    
Moisture  
Dew Point 47 °F    
Average Humidity 53    
Maximum Humidity 73    
Minimum Humidity 32    
Precipitation  
Precipitation T in 0.10 in 2.66 in (1983)
Month to date precipitation 3.17 2.65  
Year to date precipitation 8.12 7.69  
Sea Level Pressure  
Sea Level Pressure 30.27 in    
Wind  
Wind Speed 6 mph (East)    
Max Wind Speed 14 mph    
Max Gust Speed 21 mph    
Visibility 10 miles    
Events      
T = Trace of Precipitation, MM = Missing Value Source: NWS Daily Summary

Daily Weather History Graph

Daily Weather History Graph

Search for Another Location

Airport:

Trip Planner

Search our weather history database for the weather conditions in past years. The results will help you decide how hot, cold, wet, or windy it might be!

Date:

Astronomy

Mar. 27, 2014 Rise Set
Actual Time 7:26 AM EDT 7:45 PM EDT
Civil Twilight 7:02 AM EDT 8:08 PM EDT
Nautical Twilight 6:35 AM EDT 8:36 PM EDT
Astronomical Twilight 6:07 AM EDT 9:03 PM EDT
Moon 4:59 AM EDT (3/27) 4:46 PM EDT (3/27)
Length of Visible Light 13h 06m
Length of Day
12h 19m
Waning Crescent, 13% of the Moon is Illuminated
Mar 27
Waning Crescent
Mar 30
New
Apr 7
First Quarter
Apr 15
Full
Apr 22
Last Quarter

Hourly Weather History & Observations

Time (EDT) Temp. Dew Point Humidity Pressure Visibility Wind Dir Wind Speed Gust Speed Precip Events Conditions
12:53 AM 55.0 °F 34.0 °F 45% 30.27 in 10.0 mi East 8.1 mph 17.3 mph N/A   Overcast
1:53 AM 55.0 °F 27.0 °F 34% 30.27 in 10.0 mi ENE 6.9 mph - N/A   Mostly Cloudy
2:53 AM 53.1 °F 33.1 °F 47% 30.27 in 10.0 mi ENE 4.6 mph - N/A   Scattered Clouds
3:53 AM 52.0 °F 39.0 °F 61% 30.25 in 10.0 mi East 3.5 mph - N/A   Overcast
4:53 AM 53.1 °F 42.1 °F 66% 30.22 in 10.0 mi Variable 3.5 mph - N/A   Overcast
5:53 AM 54.0 °F 44.1 °F 69% 30.24 in 10.0 mi ENE 4.6 mph - N/A   Overcast
6:53 AM 54.0 °F 44.1 °F 69% 30.25 in 10.0 mi NNE 6.9 mph - N/A   Overcast
7:53 AM 54.0 °F 44.1 °F 69% 30.28 in 10.0 mi ENE 6.9 mph - N/A   Overcast
8:53 AM 55.0 °F 45.0 °F 69% 30.32 in 10.0 mi Variable 4.6 mph - N/A   Overcast
9:53 AM 57.0 °F 46.9 °F 69% 30.32 in 10.0 mi Variable 4.6 mph - N/A   Overcast
10:53 AM 60.1 °F 48.9 °F 67% 30.30 in 10.0 mi ESE 6.9 mph - N/A   Overcast
11:53 AM 63.0 °F 51.1 °F 65% 30.33 in 10.0 mi Variable 6.9 mph - N/A   Overcast
12:53 PM 64.9 °F 52.0 °F 63% 30.31 in 10.0 mi ESE 10.4 mph - N/A   Overcast
1:53 PM 66.9 °F 53.1 °F 61% 30.31 in 10.0 mi SE 8.1 mph - N/A   Overcast
2:53 PM 66.9 °F 53.1 °F 61% 30.28 in 10.0 mi SE 6.9 mph - 0.00 in   Overcast
3:53 PM 66.0 °F 55.0 °F 68% 30.25 in 10.0 mi SE 9.2 mph 16.1 mph N/A   Overcast
4:53 PM 66.0 °F 53.1 °F 63% 30.25 in 10.0 mi Variable 4.6 mph - N/A   Overcast
5:53 PM 66.9 °F 51.1 °F 57% 30.25 in 10.0 mi ESE 12.7 mph - N/A   Overcast
6:53 PM 66.9 °F 51.1 °F 57% 30.24 in 10.0 mi East 3.5 mph - N/A   Overcast
7:53 PM 66.0 °F 53.1 °F 63% 30.25 in 10.0 mi East 3.5 mph - N/A   Overcast
8:53 PM 66.0 °F 54.0 °F 65% 30.25 in 10.0 mi Variable 3.5 mph - N/A   Overcast
9:53 PM 66.0 °F 55.0 °F 68% 30.26 in 10.0 mi East 4.6 mph - N/A   Overcast
10:53 PM 64.9 °F 55.0 °F 70% 30.24 in 10.0 mi East 6.9 mph - N/A   Mostly Cloudy
11:53 PM 64.9 °F 55.0 °F 70% 30.22 in 10.0 mi East 6.9 mph - N/A   Overcast